CW9690 Weather Reports


time (UTC)temp
C
wind
direction
speed
KPH
gust
KPH
rain 1hr
cm
rain 24hr
cm
rain mn
cm
humidity
%
barometer
mb
20260507154536 11 25 0.0 9.7 0.00 0.79 0.79 81 1003.7
20260507153031 10 313 0.0 14.5 0.00 0.79 0.79 89 1004.0
20260507153009 12 297 8.0 19.3 0.00 0.69 0.64 74 1002.4
20260507151601 9 329 1.6 9.7 0.00 0.79 0.79 88 1003.9
20260507150508 12 342 6.4 16.1 0.00 0.69 0.64 77 1002.4
20260507150100 9 27 0.0 8.0 0.00 0.79 0.79 88 1004.0
20260507144616 9 19 0.0 3.2 0.00 0.79 0.79 87 1004.4
20260507143508 11 252 8.0 19.3 0.00 0.69 0.64 83 1002.7
20260507143057 8 328 0.0 0.0 0.00 0.79 0.79 87 1004.5
20260507143009 10 345 4.8 14.5 0.00 0.69 0.64 83 1002.7
20260507141620 8 292 0.0 12.9 0.00 0.79 0.79 87 1004.2
20260507140508 10 328 4.8 12.9 0.00 0.69 0.64 84 1002.8
20260507140054 8 303 0.0 4.8 0.00 0.79 0.79 86 1004.2
20260507134552 8 314 0.0 6.4 0.00 0.79 0.79 86 1004.3
20260507133051 8 30 0.0 6.4 0.00 0.79 0.79 85 1004.0
20260507131550 8 333 0.0 0.0 0.00 0.79 0.79 84 1004.0
20260507130055 8 232 0.0 0.0 0.00 0.79 0.79 84 1004.7
20260507124546 8 278 0.0 0.0 0.00 0.79 0.79 84 1004.9
20260507123049 8 303 0.0 0.0 0.00 0.79 0.79 83 1004.3
20260507121546 8 311 0.0 4.8 0.00 0.79 0.79 83 1004.3
20260507120508 8 343 3.2 14.5 0.00 0.69 0.64 94 1002.6
20260507120047 7 300 0.0 4.8 0.00 0.79 0.79 83 1004.1
20260507114543 7 238 0.0 0.0 0.00 0.79 0.79 83 1003.6
20260507113042 7 302 0.0 8.0 0.00 0.79 0.79 83 1003.6
20260507113009 8 290 3.2 14.5 0.00 0.71 0.64 95 1002.2
20260507111544 7 267 0.0 1.6 0.00 0.81 0.79 82 1003.7
20260507110508 8 295 3.2 8.0 0.00 0.71 0.64 96 1002.3
20260507110041 7 238 0.0 0.0 0.00 0.81 0.79 82 1004.0
20260507104538 7 188 0.0 1.6 0.00 0.81 0.79 82 1004.1
20260507103508 8 304 3.2 4.8 0.00 0.71 0.64 96 1002.0
20260507103040 8 214 0.0 11.3 0.00 0.81 0.79 82 1003.5
20260507101545 8 300 0.0 0.0 0.00 0.81 0.79 82 1003.3
20260507100042 8 289 0.0 3.2 0.00 0.81 0.79 82 1003.0
20260507094542 8 319 0.0 8.0 0.03 0.81 0.79 82 1003.0
20260507093508 8 252 3.2 9.7 0.03 0.71 0.64 96 1001.5
20260507093036 8 195 0.0 0.0 0.03 0.81 0.79 82 1002.8
20260507093008 8 234 1.6 16.1 0.03 0.71 0.64 96 1000.8
20260507091532 8 303 0.0 8.0 0.05 0.81 0.79 82 1002.5
20260507090508 9 279 1.6 8.0 0.13 0.71 0.61 96 1000.8
20260507090035 8 316 0.0 0.0 0.18 0.81 0.79 82 1002.0
20260507084535 8 330 0.0 0.0 0.23 0.79 0.76 82 1001.8
20260507083027 8 238 0.0 0.0 0.25 0.79 0.76 82 1001.9
20260507081526 8 284 0.0 0.0 0.23 0.76 0.71 82 1002.1
20260507080507 10 333 3.2 9.7 0.15 0.58 0.51 96 1000.4
20260507080020 9 277 1.6 8.0 0.10 0.64 0.61 81 1002.5
20260507080008 10 310 3.2 16.1 0.13 0.53 0.46 97 1000.4
20260507074519 10 223 0.0 6.4 0.13 0.53 0.51 81 1002.0
20260507073508 10 190 3.2 11.3 0.15 0.43 0.33 97 1000.5
20260507073014 10 179 0.0 0.0 0.18 0.53 0.51 81 1001.6
20260507073007 10 230 3.2 11.3 0.15 0.43 0.33 97 1000.5
20260507071513 10 143 0.0 4.8 0.23 0.53 0.51 81 1001.8
20260507070018 10 249 0.0 6.4 0.30 0.53 0.51 81 1001.9
20260507064508 10 225 0.0 9.7 0.18 0.43 0.38 81 1001.9
20260507063508 11 205 9.7 29.0 0.08 0.28 0.20 96 1000.7
20260507063008 11 189 9.7 20.9 0.05 0.25 0.18 96 1000.7
20260507063006 10 226 0.0 8.0 0.13 0.36 0.33 82 1002.2
20260507061506 10 293 0.0 14.5 0.05 0.25 0.23 82 1002.1
20260507060508 11 210 4.8 19.3 0.05 0.23 0.15 96 1000.7
20260507060008 11 201 8.0 29.0 0.03 0.20 0.13 96 1000.7
20260507060001 11 227 0.0 24.1 0.03 0.23 0.20 82 1002.2
20260507054607 11 264 6.4 24.1 0.08 0.23 0.20 81 1002.2
20260507053508 11 181 9.7 24.1 0.05 0.20 0.13 96 1000.7
20260507053101 11 220 0.0 4.8 0.13 0.23 0.20 81 1002.2
20260507051555 11 258 0.0 22.5 0.13 0.23 0.18 82 1002.5
20260507050508 12 174 11.3 24.1 0.08 0.18 0.10 96 1002.6
20260507050050 11 229 3.2 17.7 0.13 0.23 0.18 83 1003.0
20260507050008 12 204 8.0 22.5 0.10 0.18 0.10 96 1002.6
20260507044556 11 225 1.6 25.7 0.10 0.15 0.13 87 1003.5
20260507043043 12 254 1.6 19.3 0.05 0.13 0.08 89 1003.8
20260507041542 12 235 0.0 12.9 0.05 0.10 0.05 88 1004.0
20260507040507 12 178 9.7 24.1 0.03 0.10 0.03 95 1002.9
20260507040008 12 205 0.0 0.0 0.00 0.05 0.03 89 1004.5
20260507034506 12 236 0.0 16.1 0.00 0.05 0.03 89 1004.6
20260507033035 12 271 0.0 4.8 0.00 0.05 0.03 89 1005.1
20260507031531 12 243 0.0 1.6 0.00 0.05 0.03 89 1005.6
20260507030507 12 179 6.4 16.1 0.00 0.08 0.00 93 1004.3
20260507030104 12 281 1.6 12.9 0.00 0.05 0.03 89 1005.9
20260507024559 12 260 0.0 17.7 0.00 0.05 0.03 89 1006.3
20260507023053 12 256 0.0 6.4 0.00 0.05 0.03 89 1006.6
20260507023007 12 187 4.8 20.9 0.03 0.08 0.08 94 1005.1
20260507021549 11 243 0.0 3.2 0.00 0.05 0.03 89 1006.9
20260507020507 12 177 8.0 25.7 0.03 0.08 0.08 93 1005.8
20260507020050 11 252 0.0 1.6 0.00 0.05 0.03 89 1007.2
20260507014547 11 120 0.0 8.0 0.00 0.05 0.03 89 1007.4
20260507013056 11 238 0.0 0.0 0.00 0.05 0.03 89 1007.8
20260507013007 12 184 3.2 24.1 0.00 0.05 0.05 93 1006.0
20260507011543 11 233 0.0 12.9 0.03 0.05 0.03 89 1008.2
20260507010507 12 185 4.8 14.5 0.00 0.05 0.05 93 1006.0
20260507010044 11 135 0.0 1.6 0.03 0.05 0.03 89 1007.6
20260507010007 12 170 4.8 20.9 0.00 0.05 0.05 93 1006.0
20260507004538 11 140 0.0 1.6 0.03 0.05 0.03 89 1008.4
20260507003507 12 160 9.7 22.5 0.00 0.05 0.05 92 1007.6
20260507003033 12 121 0.0 3.2 0.03 0.05 0.03 88 1008.8
20260507003007 12 189 4.8 24.1 0.00 0.05 0.05 92 1007.6
20260507001536 12 136 0.0 3.2 0.00 0.05 0.05 88 1008.7
20260507000024 12 237 0.0 9.7 0.00 0.05 0.05 88 1009.2
20260506234521 12 285 0.0 9.7 0.00 0.05 0.05 88 1009.0
20260506233507 12 191 6.4 24.1 0.00 0.05 0.05 92 1007.6
20260506233014 12 267 0.0 14.5 0.00 0.05 0.05 88 1009.3
20260506231513 12 160 0.0 9.7 0.00 0.05 0.05 88 1009.3
20260506230508 12 180 6.4 19.3 0.03 0.05 0.05 91 1007.4
20260506230004 12 207 0.0 11.3 0.00 0.05 0.05 88 1009.0
20260506224608 12 230 0.0 11.3 0.00 0.05 0.05 88 1009.1
20260506223507 13 198 4.8 19.3 0.03 0.05 0.05 90 1007.4
20260506223054 12 120 0.0 11.3 0.00 0.05 0.05 87 1008.9
20260506223007 13 191 8.0 32.2 0.03 0.05 0.05 89 1007.4
20260506221554 12 269 1.6 17.7 0.00 0.05 0.05 85 1009.5
20260506220045 13 250 3.2 24.1 0.00 0.05 0.05 85 1009.2
20260506214556 13 140 6.4 24.1 0.00 0.05 0.05 84 1009.2
20260506213507 13 166 9.7 24.1 0.00 0.05 0.05 87 1007.4
20260506213034 13 203 0.0 20.9 0.00 0.05 0.05 84 1008.6
20260506213007 13 166 14.5 27.4 0.00 0.05 0.05 87 1007.4
20260506211532 13 213 3.2 38.6 0.00 0.05 0.05 84 1009.1
20260506210025 -67 248 0.0 19.3 0.00 0.05 0.05 100 1009.2
20260506210007 13 199 16.1 35.4 0.00 0.05 0.05 87 1007.5
20260506204522 13 245 4.8 19.3 0.00 0.05 0.05 84 1008.9
20260506203022 13 266 0.0 14.5 0.00 0.05 0.05 85 1009.1
20260506201519 13 235 1.6 22.5 0.00 0.05 0.05 84 1009.2
20260506200018 13 257 0.0 17.7 0.00 0.05 0.05 84 1009.0
20260506200007 13 196 9.7 29.0 0.00 0.05 0.05 87 1007.6
20260506194518 13 251 4.8 24.1 0.00 0.05 0.05 83 1009.1
20260506193507 13 183 9.7 24.1 0.00 0.05 0.05 86 1007.8
20260506193017 13 239 0.0 27.4 0.00 0.05 0.05 83 1009.1
20260506193007 13 196 8.0 24.1 0.00 0.05 0.05 86 1008.2
20260506191514 13 246 0.0 25.7 0.00 0.05 0.05 83 1009.2
20260506190507 13 210 8.0 22.5 0.00 0.05 0.05 86 1008.2
20260506190016 13 281 0.0 17.7 0.00 0.05 0.05 83 1009.1
20260506190013 13 267 0.0 17.7 0.00 0.05 0.05 83 1009.1
20260506184513 13 181 0.0 19.3 0.00 0.05 0.05 84 1009.2
20260506183012 13 103 0.0 12.9 0.00 0.05 0.05 85 1009.3
20260506183007 13 156 8.0 19.3 0.00 0.05 0.05 89 1008.2
20260506181509 12 207 0.0 22.5 0.00 0.05 0.05 86 1009.4
20260506180506 12 181 9.7 19.3 0.00 0.05 0.05 89 1008.2
20260506180010 12 235 0.0 17.7 0.00 0.05 0.05 86 1009.7
20260506180007 12 187 6.4 22.5 0.00 0.05 0.05 89 1008.3
20260506174507 12 240 0.0 4.8 0.00 0.05 0.05 86 1009.8
20260506173007 12 183 0.0 11.3 0.00 0.05 0.05 86 1010.2
20260506171511 12 212 0.0 0.0 0.00 0.05 0.05 86 1010.3
20260506170004 12 139 0.0 0.0 0.00 0.05 0.05 85 1010.4
20260506164504 12 136 0.0 0.0 0.00 0.05 0.05 85 1010.6
20260506163006 13 174 4.8 16.1 0.00 0.05 0.05 86 1009.1
20260506163003 12 110 0.0 3.2 0.00 0.05 0.05 85 1010.6
20260506161533 12 117 0.0 3.2 0.00 0.05 0.05 85 1010.7
20260506160507 13 144 3.2 11.3 0.00 0.05 0.05 86 1009.6
20260506160033 12 117 0.0 8.0 0.00 0.05 0.05 83 1010.9
20260506160007 13 184 4.8 19.3 0.00 0.05 0.05 86 1009.6